Mount Airy, NC

2:53 AM EST on February 23, 2017 (GMT -0500)
Mount Airy-Surry County

Weather History for KMWK - December, 2013

Change the Weather History Date:

Sunday, December 15, 2013

  Actual Average (KINT) Record (KINT)
Temperature  
Mean Temperature 40 °F -  
Max Temperature 45 °F 48 °F 74 °F (1984)
Min Temperature 36 °F 31 °F 14 °F (1978)
Degree Days  
Heating Degree Days 24    
Moisture  
Dew Point 31 °F    
Average Humidity 72    
Maximum Humidity 93    
Minimum Humidity 53    
Precipitation  
Precipitation 0.01 in - - ()
Sea Level Pressure  
Sea Level Pressure 29.87 in    
Wind  
Wind Speed 4 mph (WNW)    
Max Wind Speed 16 mph    
Max Gust Speed 24 mph    
Visibility 7 miles    
Events Fog    
Averages and records for this station are not official NWS values.
T = Trace of Precipitation, MM = Missing Value Source: NWS Daily Summary

Daily Weather History Graph

Daily Weather History Graph

Search for Another Location

Airport or City:

Trip Planner

Search our weather history database for the weather conditions in past years. The results will help you decide how hot, cold, wet, or windy it might be!

Date:

Astronomy

Dec. 15, 2013 Rise Set
Actual Time 7:26 AM EST 5:08 PM EST
Civil Twilight 6:58 AM EST 5:36 PM EST
Nautical Twilight 6:25 AM EST 6:09 PM EST
Astronomical Twilight 5:54 AM EST 6:40 PM EST
Moon 4:09 PM EST (12/15) 5:43 AM EST (12/15)
Length of Visible Light 10h 38m
Length of Day
9h 41m
Waxing Gibbous, 97% of the Moon is Illuminated
Dec 15
Waxing Gibbous
Dec 17
Full
Dec 25
Last Quarter
Jan 1
New
Jan 7
First Quarter

Hourly Weather History & Observations

Time (EST) Temp. Windchill Dew Point Humidity Pressure Visibility Wind Dir Wind Speed Gust Speed Precip Events Conditions
12:15 AM 36.9 °F - 34.9 °F 93% 29.76 in 0.5 mi Calm Calm - N/A Fog Fog
12:35 AM 37.0 °F - 35.1 °F 93% 29.73 in 0.5 mi Calm Calm - N/A Fog Fog
12:55 AM 36.9 °F - 35.1 °F 93% 29.73 in 0.5 mi Calm Calm - N/A Fog Fog
1:15 AM 37.0 °F - 35.1 °F 93% 29.73 in 0.2 mi Calm Calm - N/A Fog Fog
1:35 AM 37.4 °F - 35.2 °F 92% 29.75 in 0.5 mi Calm Calm - N/A Fog Fog
1:55 AM 37.4 °F - 35.6 °F 93% 29.72 in 0.2 mi Calm Calm - N/A Fog Fog
2:15 AM 37.8 °F - 35.8 °F 93% 29.74 in 0.5 mi Calm Calm - N/A Fog Fog
2:35 AM 37.8 °F - 36.0 °F 93% 29.72 in 0.5 mi Calm Calm - N/A Fog Fog
2:55 AM 37.8 °F - 36.0 °F 93% 29.73 in 0.5 mi Calm Calm - N/A Fog Fog
3:15 AM 37.9 °F - 36.0 °F 93% 29.71 in 0.5 mi Calm Calm - N/A Fog Fog
3:35 AM 38.3 °F - 36.1 °F 92% 29.71 in 0.8 mi Calm Calm - N/A   Overcast
3:55 AM 38.3 °F - 36.5 °F 93% 29.71 in 0.5 mi Calm Calm - N/A Fog Fog
4:15 AM 38.3 °F - 36.3 °F 93% 29.71 in 0.5 mi Calm Calm - N/A Fog Fog
4:35 AM 38.3 °F - 36.5 °F 93% 29.72 in 0.5 mi Calm Calm - N/A Fog Fog
4:55 AM 38.3 °F - 36.5 °F 93% 29.72 in 0.5 mi Calm Calm - N/A Fog Fog
5:15 AM 38.5 °F - 36.5 °F 93% 29.72 in 0.2 mi Calm Calm - N/A Fog Fog
5:35 AM 38.3 °F - 36.5 °F 93% 29.73 in 0.2 mi Calm Calm - N/A Fog Fog
5:55 AM 38.3 °F - 36.3 °F 93% 29.73 in 0.2 mi Calm Calm - N/A Fog Fog
6:15 AM 38.3 °F - 36.1 °F 92% 29.74 in 0.2 mi Calm Calm - N/A Fog Fog
6:35 AM 37.6 °F - 35.8 °F 93% 29.76 in 0.2 mi Calm Calm - N/A Fog Fog
6:55 AM 38.3 °F - 36.5 °F 93% 29.77 in 4.0 mi Calm Calm - 0.01 in   Mostly Cloudy
7:15 AM 38.3 °F 35.9 °F 36.3 °F 93% 29.77 in 5.0 mi West 3.5 mph - N/A   Overcast
7:35 AM 39.4 °F - 37.6 °F 93% 29.78 in 10.0 mi Calm Calm - N/A   Overcast
7:55 AM 39.7 °F 34.9 °F 37.8 °F 93% 29.79 in 10.0 mi NW 6.9 mph - N/A   Mostly Cloudy
8:15 AM 40.6 °F 36.0 °F 37.9 °F 90% 29.80 in 10.0 mi WNW 6.9 mph - N/A   Clear
8:35 AM 42.8 °F - 36.9 °F 80% 29.82 in 10.0 mi Calm Calm - N/A   Clear
8:55 AM 43.7 °F 42.1 °F 35.1 °F 72% 29.83 in 10.0 mi West 3.5 mph - N/A   Clear
9:15 AM 44.2 °F 40.3 °F 33.8 °F 67% 29.85 in 10.0 mi WNW 6.9 mph - N/A   Scattered Clouds
9:35 AM 44.2 °F 39.2 °F 32.9 °F 64% 29.85 in 10.0 mi NW 9.2 mph 23.0 mph N/A   Scattered Clouds
9:55 AM 44.8 °F 40.4 °F 33.3 °F 64% 29.87 in 10.0 mi NNW 8.1 mph 20.7 mph N/A   Scattered Clouds
10:15 AM 44.6 °F 37.8 °F 32.5 °F 63% 29.88 in 10.0 mi NW 15.0 mph 23.0 mph N/A   Scattered Clouds
10:35 AM 44.6 °F 38.4 °F 32.2 °F 62% 29.88 in 10.0 mi NW 12.7 mph 24.2 mph N/A   Scattered Clouds
10:55 AM 44.1 °F 37.1 °F 31.5 °F 61% 29.89 in 10.0 mi NW 15.0 mph 24.2 mph N/A   Clear
11:15 AM 44.4 °F 40.0 °F 31.8 °F 61% 29.89 in 10.0 mi NW 8.1 mph 18.4 mph N/A   Scattered Clouds
11:35 AM 44.8 °F 39.9 °F 31.8 °F 60% 29.89 in 10.0 mi West 9.2 mph 16.1 mph N/A   Scattered Clouds
11:55 AM 45.0 °F 40.1 °F 30.9 °F 58% 29.88 in 10.0 mi West 9.2 mph 19.6 mph N/A   Clear
12:15 PM 45.1 °F 39.5 °F 30.4 °F 56% 29.89 in 10.0 mi WNW 11.5 mph 19.6 mph N/A   Scattered Clouds
12:35 PM 45.1 °F 39.5 °F 29.8 °F 55% 29.89 in 10.0 mi WNW 11.5 mph 23.0 mph N/A   Clear
12:55 PM 45.5 °F 40.8 °F 30.0 °F 55% 29.89 in 10.0 mi WNW 9.2 mph 18.4 mph N/A   Scattered Clouds
1:15 PM 44.8 °F 39.4 °F 29.5 °F 55% 29.90 in 10.0 mi West 10.4 mph 17.3 mph N/A   Mostly Cloudy
1:35 PM 45.5 °F 40.8 °F 29.8 °F 54% 29.89 in 10.0 mi WNW 9.2 mph 17.3 mph N/A   Scattered Clouds
1:55 PM 44.8 °F 39.9 °F 28.8 °F 53% 29.90 in 10.0 mi WNW 9.2 mph 20.7 mph N/A   Clear
2:15 PM 44.4 °F 40.5 °F 29.1 °F 55% 29.90 in 10.0 mi WNW 6.9 mph 18.4 mph N/A   Scattered Clouds
2:35 PM 44.1 °F 36.8 °F 27.9 °F 53% 29.91 in 10.0 mi NW 16.1 mph 24.2 mph N/A   Clear
2:55 PM 43.7 °F 36.3 °F 28.0 °F 54% 29.92 in 10.0 mi NW 16.1 mph 23.0 mph N/A   Clear
3:15 PM 43.3 °F 38.1 °F 27.5 °F 54% 29.92 in 10.0 mi WNW 9.2 mph 18.4 mph N/A   Clear
3:35 PM 43.0 °F 36.8 °F 27.1 °F 54% 29.94 in 10.0 mi NW 11.5 mph 17.3 mph N/A   Clear
3:55 PM 42.6 °F 36.3 °F 27.1 °F 54% 29.94 in 10.0 mi WNW 11.5 mph 17.3 mph N/A   Clear
4:15 PM 41.9 °F 36.3 °F 26.4 °F 54% 29.96 in 10.0 mi WNW 9.2 mph 23.0 mph N/A   Clear
4:35 PM 41.4 °F 35.7 °F 26.4 °F 55% 29.96 in 10.0 mi WNW 9.2 mph 16.1 mph N/A   Clear
4:55 PM 40.3 °F 33.9 °F 25.7 °F 56% 29.97 in 10.0 mi WNW 10.4 mph - N/A   Clear
5:15 PM 39.4 °F 34.5 °F 25.3 °F 57% 29.97 in 10.0 mi NW 6.9 mph - N/A   Clear
5:35 PM 38.5 °F - 25.5 °F 60% 29.97 in 10.0 mi Calm Calm - N/A   Clear
5:55 PM 38.3 °F - 25.7 °F 61% 29.98 in 10.0 mi Calm Calm - N/A   Clear
6:15 PM 37.6 °F - 25.9 °F 63% 29.99 in 10.0 mi Calm Calm - N/A   Clear
6:35 PM 37.4 °F 34.9 °F 26.4 °F 65% 29.99 in 10.0 mi West 3.5 mph - N/A   Clear
6:55 PM 36.9 °F 34.3 °F 26.6 °F 66% 30.00 in 10.0 mi West 3.5 mph - N/A   Clear
7:15 PM 37.6 °F 34.0 °F 27.0 °F 66% 30.00 in 10.0 mi West 4.6 mph - N/A   Clear
7:35 PM 37.4 °F 32.8 °F 27.1 °F 66% 30.00 in 10.0 mi West 5.8 mph - N/A   Clear
7:55 PM 37.6 °F 32.3 °F 27.1 °F 66% 30.01 in 10.0 mi West 6.9 mph - N/A   Clear
8:15 PM 37.9 °F 33.5 °F 26.8 °F 64% 30.02 in 10.0 mi West 5.8 mph 19.6 mph N/A   Clear
8:35 PM 37.4 °F 32.8 °F 27.0 °F 66% 30.01 in 10.0 mi West 5.8 mph - N/A   Clear
8:55 PM 37.8 °F 35.3 °F 27.0 °F 65% 30.02 in 10.0 mi West 3.5 mph - N/A   Clear
9:15 PM 38.3 °F 33.2 °F 27.1 °F 64% 30.02 in 10.0 mi WNW 6.9 mph - N/A   Clear
9:35 PM 38.3 °F 32.5 °F 27.1 °F 64% 30.02 in 10.0 mi WNW 8.1 mph - N/A   Clear
9:55 PM 38.3 °F 33.9 °F 27.3 °F 65% 30.02 in 10.0 mi WNW 5.8 mph - N/A   Clear
10:15 PM 37.8 °F 35.3 °F 27.3 °F 66% 30.02 in 10.0 mi WSW 3.5 mph - N/A   Clear
10:35 PM 37.9 °F 32.1 °F 27.5 °F 66% 30.02 in 10.0 mi West 8.1 mph 18.4 mph N/A   Clear
10:55 PM 38.1 °F 31.2 °F 27.5 °F 66% 30.03 in 10.0 mi West 10.4 mph 17.3 mph N/A   Clear
11:15 PM 37.9 °F 31.5 °F 27.5 °F 66% 30.04 in 10.0 mi NW 9.2 mph 19.6 mph N/A   Clear
11:35 PM 37.6 °F 32.3 °F 27.5 °F 67% 30.04 in 10.0 mi NW 6.9 mph - N/A   Clear
11:55 PM 37.6 °F 29.1 °F 27.5 °F 67% 30.02 in 10.0 mi NW 13.8 mph 23.0 mph N/A   Clear